Regional Weather Roundup
Issued by NWS

Home | Current Version | Previous Version | Text Only | Print | Product List | Glossary Off
Versions: 1 2 3 4 5 6 7 8 9 10 11 12 13 14 15 16 17 18 19 20 21 22 23 24 25 26 27

000
ASUS45 KBOU 222207
RWRCO

WEATHER ROUNDUP FOR COLORADO
NATIONAL WEATHER SERVICE DENVER/BOULDER CO
400 PM MDT FRI JUL 22 2016

NOTE: "FAIR" INDICATES FEW OR NO CLOUDS BELOW 12000 FEET WITH NO
SIGNIFICANT WEATHER AND/OR OBSTRUCTIONS TO VISIBILITY.

COZ001>005-013-030-031-222300-
...NORTHWEST COLORADO...

CITY           SKY/WX    TMP DP  RH WIND       PRES   REMARKS
CRAIG          FAIR      89  41  18 S12G23    30.25F
HAYDEN         FAIR      88  39  18 NW9       30.28S
MEEKER         FAIR      79  53  40 SW12      30.29S
MOUNT WERNER   NOT AVBL
STEAMBOAT SPGS FAIR      83  43  24 S3        30.31S
WALDEN         PTSUNNY   77  37  24 CALM      30.40F
$$

COZ006>008-011-222300-
...WEST CENTRAL VALLEYS...

CITY           SKY/WX    TMP DP  RH WIND       PRES   REMARKS
GRAND JUNCTION FAIR      93  49  22 SE9       30.16F
MONTROSE       FAIR      84  48  28 S7        30.28F
EAGLE          MOSUNNY   86  45  23 SW16      30.30F
RIFLE          FAIR      85  46  25 N10G22    30.23R
DELTA          FAIR      92  47  21 W6        30.22F
NUCLA          FAIR      82  45  26 SW12      30.31F
$$

COZ017>023-064>068-222300-
...SOUTHWEST COLORADO...

CITY           SKY/WX    TMP DP  RH WIND       PRES   REMARKS
DURANGO        FAIR      83  48  29 N14       30.30F
CORTEZ         CLOUDY    90  51  26 NE10G17   30.25F
PAGOSA SPRINGS FAIR      85  38  18 SW10G16   30.40F
TELLURIDE      PTSUNNY   68  49  50 CALM      30.57F
WOLF CREEK PAS FAIR      61  41  48 SW17G31   30.79S
$$

COZ009-010-012-014-032>034-037-058>063-222300-
...CENTRAL COLORADO...

CITY           SKY/WX    TMP DP  RH WIND       PRES   REMARKS
ASPEN          FAIR      75  47  36 E13       30.43S
BUENA VISTA    NOT AVBL
COPPER MTN     PTSUNNY   64  36  34 NW9       30.76F
BERTHOUD PASS  PTSUNNY   55  43  62 N9        30.79F
COTTONWOOD PAS CLOUDY    63  48  59 NW8       30.61S THUNDER
GUNNISON       PTSUNNY   64  52  63 SW8       30.49S
KREMMLING      FAIR      79  50  36 S5        30.37F
LEADVILLE      FAIR      70  36  28 W8G16     30.57F
MONARCH PASS   PTSUNNY   59  39  47 MISG      30.88S
SALIDA         FAIR      81  49  31 N5        30.44F
SUNLIGHT       PTSUNNY   64  52  63 CALM      30.70F
WILKERSON PASS PTSUNNY   61  37  41 SW5       30.72F THUNDER
$$

COZ069>075-222300-
...SAN LUIS VALLEY/SANGRE DE CRISTO MOUNTAINS...

CITY           SKY/WX    TMP DP  RH WIND       PRES   REMARKS
ALAMOSA        FAIR      87  43  21 VRB7      30.34F
LA VETA PASS   FAIR      75  36  23 S6G16     30.60F
SAGUACHE       FAIR      72  46  40 NW15      30.44S
$$

COZ035-036-038>040-222300-
...NORTHERN COLORADO FRONT RANGE...

CITY           SKY/WX    TMP DP  RH WIND       PRES   REMARKS
DENVER INTL AP PTSUNNY   92  47  21 W9        30.14F
DMNS CITY PARK   N/A     90  49  23 SW2       30.13F
AURORA         PTSUNNY   87  50  27 W7        30.17F
FRONT RANGE AP PTSUNNY   91  46  21 W9G22     30.16F
ERIE MUNI ARPT FAIR      95  42  16 S7        30.11F
BOULDER MUN AP FAIR      93  46  20 SE6       30.12F
CENTENNIAL     PTSUNNY   86  52  30 S14       30.19F
BROOMFIELD     PTSUNNY   93  45  18 SE7       30.17F
LONGMONT       FAIR      98  44  16 SE7       30.11F
$$

COZ041-046-047-076>085-087-088-222300-
...PIKES PEAK/PALMER DIVIDE AND SOUTHERN FOOTHILLS...

CITY           SKY/WX    TMP DP  RH WIND       PRES   REMARKS
COLO. SPRINGS  PTSUNNY   91  43  18 E8        30.21F
A. F. ACADEMY  TSTM      76  56  50 W16       30.25R
SCHRIEVER AFB  NOT AVBL
ELLICOTT       FAIR       1  32 100 E6        30.19F THUNDER WCI -10
FALCON         FAIR      87  42  21 SE6       30.29F
FORT CARSON    LGT RAIN  90  48  24 E6        30.17F
LIMON          FAIR      95  46  18 S13G18    30.13F
MONUMENT HILL  CLOUDY    75  52  43 NW20      30.31S THUNDER
TRINIDAD       NOT AVBL
$$

COZ042>045-048>051-090-091-222300-
...NORTHEAST COLORADO...

CITY           SKY/WX    TMP DP  RH WIND       PRES   REMARKS
GREELEY ARPT   FAIR      99  48  18 S8        30.09F
AKRON          FAIR      93  56  28 W6        30.08F
BURLINGTON     FAIR      98  50  19 VRB6      30.05F
WRAY           NOT AVBL
STERLING       FAIR      97  61  30 S8        30.02F
HOLYOKE        FAIR      99  63  30 W8        30.02F
FORT MORGAN    FAIR      98  46  17 SE8       30.06F
$$

COZ086-089-092>099-222300-
...SOUTHEAST COLORADO...

CITY           SKY/WX    TMP DP  RH WIND       PRES   REMARKS
PUEBLO         FAIR     103  44  13 VRB5      30.05F
LA JUNTA       FAIR     103  44  13 SE12      30.03F
LAMAR          FAIR     103  54  19 S7        29.98F
SPRINGFIELD      N/A     86  56  35 VRB7G16   30.09R
$$




USA.gov is the U.S. government's official web portal to all federal, state and local government web resources and services.